www.pogodaiklimat.ru

АРХИВ ПОГОДЫ в Чикаго

Время (UTC), дата Ветер
(напр.,м/с)
 
Видим.   Явления Облачность Т
(С)
Тd
(С)
f
(%)
Тe
(С)
Тes
(С)
Комфортность

P
(гПа)

Po
(гПа)
Тmin
(С)
Tmax
(С)
R
(мм)
SD
(см)
13:10 16.06 С  6
{9} 
16 км    10/10 810 м  +21.7  +15.6  68  +25  +25  комфорт    985.0         
13:51 16.06 С  16 км    10/10 810 м  +21.7  +16.1  70  +25  +25  комфорт  1008.9  985.3         
14:51 16.06 С  16 км    10/10 450 м  +21.1  +16.1  73  +24  +24  комфорт  1009.6  986.0         
15:34 16.06 СЗ  16 км    10/10 690 м  +21.1  +16.1  73  +24  +24  комфорт    986.0         
15:51 16.06 СЗ  16 км    10/10 420 м  +21.1  +16.1  73  +24  +24  комфорт  1010.1  986.6         
16:29 16.06 СЗ  5
{9} 
16 км    10/10 420 м  +21.7  +16.1  70  +25  +25  комфорт    986.6         
16:51 16.06 СЗ  8
{11} 
16 км    10/10 780 м  +22.2  +15.6  66  +26  +26  душно  1010.3  986.6         
17:51 16.06 СЗ  16 км    8/8 1020 м  +23.3  +15.0  60  +27  +28  душно  1010.5  986.6  +20.6  +23.3     
18:51 16.06 СЗ  16 км    10/10 420 м  +22.8  +15.0  61  +27  +27  душно  1010.9  987.3         
19:51 16.06 СВ  16 км    10/10 840 м  +20.0  +15.6  76  +22  +22  комфорт  1011.6  987.6         
20:51 16.06 СВ  16 км    10/10 810 м  +20.0  +15.0  73  +22  +22  комфорт  1012.1  988.3         
21:51 16.06 СВ  16 км    10/10 810 м  +20.6  +15.0  70  +23  +23  комфорт  1012.2  988.3         
22:12 16.06 СВ  16 км    10/10 780 м  +20.6  +15.6  73  +23  +23  комфорт    988.3         
22:51 16.06 СВ  16 км    8/8 900 м  +20.0  +15.0  73  +22  +23  комфорт  1012.4  988.6         
23:47 16.06 СВ  16 км    10/10 840 м  +19.0  +14.0  73  +20  +20      988.9         
23:51 16.06 СВ  16 км    10/10 840 м  +18.9  +14.4  75  +19  +19    1013.1  989.3  +18.9  +23.3     
00:25 17.06 СВ  16 км    10/10 660 м  +18.3  +14.4  78  +18  +18      989.3         
00:51 17.06 СВ  16 км    10/10 570 м  +18.3  +14.4  78  +18  +18    1013.5  989.6         
01:51 17.06 С  16 км    10/10 510 м  +18.3  +15.0  81  +18  +18    1013.4  989.3         
02:01 17.06 С  16 км    10/10 480 м  +18.3  +15.0  81  +18  +18      989.6         
02:51 17.06 С  16 км    5/5 600 м  +18.3  +15.0  81  +18  +18    1013.9  989.9         
03:51 17.06 С  16 км    5/5 630 м  +18.3  +12.8  70  +18  +18    1014.1  989.9         
04:51 17.06 С  16 км    ясно  +17.8  +13.3  75  +17  +17    1014.6  990.6         
05:51 17.06 С  16 км    ясно  +17.2  +13.3  78  +17  +17    1014.6  990.6  +17.2  +18.9     
06:51 17.06 СЗ  16 км    ясно  +16.7  +13.9  84  +17  +17    1015.0  990.9         
07:51 17.06 С  16 км    ясно  +16.7  +13.9  84  +17  +17    1015.1  990.9         
08:51 17.06 С  16 км    ясно  +16.1  +13.9  87  +15  +15    1015.1  991.2         
09:51 17.06 С  16 км    2/0 7500 м
[верхняя] 
+16.1  +13.3  83  +15  +15    1015.7  991.6         
10:51 17.06 С  16 км    2/0 7500 м
[верхняя] 
+16.1  +13.3  83  +16  +16    1016.6  992.6         
11:51 17.06 С  16 км    ясно  +17.8  +13.9  78  +18  +18    1017.1  992.9  +16.1  +17.8     
12:51 17.06 СВ  16 км    ясно  +20.6  +13.9  65  +23  +25  комфорт  1017.5  993.6         
13:51 17.06 СВ  16 км    2/0 6000 м
[средняя] 
+22.8  +12.8  53  +26  +28  жарко  1017.7  993.6         
14:51 17.06 В  16 км    ясно  +23.9  +12.8  50  +26  +31  жарко  1018.1  994.2         
15:51 17.06 СВ  16 км    ясно  +25.6  +12.2  43  +27  +34  жарко  1018.1  993.9         
16:51 17.06 В  16 км    2/0 7500 м
[верхняя] 
+26.7  +11.7  39  +28  +33  жарко  1018.1  994.2         
17:51 17.06 В  6
{8} 
16 км    2/0 7500 м
[верхняя] 
+27.8  +11.1  35  +29  +34  жарко  1018.2  994.2  +17.8  +27.8     
18:51 17.06 В  16 км    2/0 7500 м
[верхняя] 
+28.3  +10.6  33  +29  +36  жарко  1018.1  994.2         
19:51 17.06 СВ  16 км    2/0 7500 м
[верхняя] 
+28.9  +10.6  32  +29  +36  жарко  1018.0  994.2         
20:51 17.06 СВ  16 км    5/0 7500 м
[верхняя] 
+29.4  +9.4  29  +29  +39  жарко  1018.4  994.6         
21:51 17.06 СВ  16 км    2/0 7500 м
[верхняя] 
+28.3  +9.4  31  +28  +33  жарко  1018.6  994.6         
22:51 17.06 СВ  16 км    5/0 7500 м
[верхняя] 
+27.8  +9.4  32  +28  +31  жарко  1018.2  994.2         
23:51 17.06 СВ  16 км    5/0 7500 м
[верхняя] 
+26.7  +9.4  34  +27  +28  жарко  1018.0  993.9  +26.7  +29.4     
00:51 18.06 СВ  16 км    5/0 7500 м
[верхняя] 
+24.4  +10.0  40  +25  +26  комфорт  1018.0  994.2         
01:51 18.06 СВ  16 км    5/0 7500 м
[верхняя] 
+22.8  +9.4  42  +24  +24  комфорт  1018.2  994.2         
02:51 18.06 СВ  16 км    5/0 7500 м
[верхняя] 
+21.1  +10.0  49  +23  +23  комфорт  1019.6  995.5         
03:51 18.06 СВ  16 км    2/0 7500 м
[верхняя] 
+20.6  +10.0  51  +23  +23  комфорт  1020.0  995.9         
04:51 18.06 С  16 км    2/0 7500 м
[верхняя] 
+18.9  +10.6  59  +20  +20    1020.3  996.2         
05:51 18.06 С  16 км    ясно  +17.8  +11.1  65  +19  +19    1019.9  995.9  +16.7  +26.7     

 

Местоположение метеостанции Chicago-O`Hare International Airport: широта 41.9797 долгота -87.9044 высота над уровнем моря 203 м.

В архиве по умолчанию представлена погода в Чикаго за последние 1-2 суток. Обновление информации о фактической погоде в базе происходит ежечасно! Архивные данные за месяц целиком и за предыдущие месяцы Вы можете получить, выбрав интересующий диапазон дат из раскрывающегося списка и нажав кнопку "Ввод!".

Внимание! Архив погоды МЕТАР в базе сайта в настоящее время начинается c 1 января 2013 г. Нет смысла пытаться выбрать более раннюю дату.

Внимание! Время в таблицах - всемирное. Для получения местного времени необходимо прибавить поправку, которая в Чикаго равна -6 ч.

Ветер - указаны скорость ветра в м/с и направление, откуда дует ветер: С - северный, СВ - северо-восточный, В - восточный, ЮВ - юго-восточный, Ю - южный, ЮЗ - юго-западный, З - западный, СЗ - северо-западный.
Видимость - горизонтальная дальность видимости в метрах или километрах. При видимости от 1 до 10 км при отсутствии осадков обычно наблюдается дымка, при ухудшении видимости до 1 км и менее - туман. В сухую погоду видимость может ухудшаться дымом, пылью или мглою.
Атмосферные явления - указаны явления, наблюдавшиеся в указанный момент времени.
Облачность - указаны через наклонную черту верхняя и нижняя облачность в баллах и высота нижней границы облаков в метрах. Внимание: облачность, как и прочие метеорологические величины в США измеряются автоматическими метеостанциями. Указанные значения в баллах носят условный характер и показывают процент времени, в течение которого, в среднем, лазерный луч высотомера отражался от облаков обратно.
T - Температура воздуха - температура, измеренная на высоте 2 м над землей.
Td - Температура точки росы - температура, при понижении до которой содержащийся в воздухе водяной пар достигнет насыщения.
f - Относительная влажность воздуха - влажноcть воздуха, измеренная на высоте 2 м над землей.
Te - Эффективная температура - температура, которую ощущает одетый по сезону человек в тени. Характеристика душности погоды. При расчете учитывается влияние влажности воздуха и скорости ветра на теплоощущения человека.
Tes - Эффективная температура на солнце - температура, которую ощущает человек, с поправкой на солнечный нагрев. Характеристика знойности погоды. Зависит от высоты солнца над горизонтом, облачности и скорости ветра. Ночью, в пасмурную погоду, а также при ветре 12 м/с и более поправка равна нулю.
P - Атмосферное давление - приведенное к уровню моря атмосферное давление.
Po - Атмосферное давление - измеренное на уровне метеостанции атмосферное давление.
Tmin - Минимальная температура - минимум температуры воздуха на высоте 2 м над землей.
Tmax - Максимальная температура - максимум температуры воздуха на высоте 2 м над землей.
R - Количество осадков - Количество выпавших осадков за 3 или 6 часов, мм.
SD - Снежный покров - Высота снежного покрова, см.